Time,TemperatureF,DewpointF,PressureIn,WindDirection,WindDirectionDegrees,WindSpeedMPH,WindSpeedGustMPH,Humidity,HourlyPrecipIn,Conditions,Clouds,dailyrainin,SolarRadiationWatts/m^2,SoftwareType,DateUTC
2013-03-20 00:02:00,4.0,-7.0,30.18,NW,310,6.0,15.0,59,0.00,,,0.00,1.000000,,2013-03-20 05:02:00,
2013-03-20 00:33:00,3.0,-7.0,30.18,NW,307,7.0,13.0,61,0.00,,,0.00,1.000000,,2013-03-20 05:33:00,
2013-03-20 00:43:00,3.0,-7.0,30.18,NW,307,7.0,13.0,61,0.00,,,0.00,1.000000,,2013-03-20 05:43:00,
2013-03-20 00:53:00,3.0,-7.0,30.18,NW,307,7.0,13.0,61,0.00,,,0.00,1.000000,,2013-03-20 05:53:00,
2013-03-20 01:02:00,3.0,-7.0,30.18,NW,307,7.0,13.0,61,0.00,,,0.00,1.000000,,2013-03-20 06:02:00,
2013-03-20 01:32:00,2.0,-8.0,30.19,NW,311,6.0,12.0,62,0.00,,,0.00,1.000000,,2013-03-20 06:32:00,
2013-03-20 01:43:00,2.0,-8.0,30.19,NW,311,6.0,12.0,62,0.00,,,0.00,1.000000,,2013-03-20 06:43:00,
2013-03-20 01:53:00,2.0,-8.0,30.19,NW,311,6.0,12.0,62,0.00,,,0.00,1.000000,,2013-03-20 06:53:00,
2013-03-20 02:02:00,2.0,-8.0,30.19,NW,311,6.0,12.0,62,0.00,,,0.00,1.000000,,2013-03-20 07:02:00,
2013-03-20 02:32:00,3.0,-8.0,30.20,NW,311,7.0,16.0,58,0.00,,,0.00,1.000000,,2013-03-20 07:32:00,
2013-03-20 02:42:00,3.0,-8.0,30.20,NW,311,7.0,16.0,58,0.00,,,0.00,1.000000,,2013-03-20 07:42:00,
2013-03-20 02:52:00,3.0,-8.0,30.20,NW,311,7.0,16.0,58,0.00,,,0.00,1.000000,,2013-03-20 07:52:00,
2013-03-20 03:02:00,3.0,-8.0,30.20,NW,311,7.0,16.0,58,0.00,,,0.00,1.000000,,2013-03-20 08:02:00,
2013-03-20 03:32:00,2.0,-9.0,30.19,NW,306,7.0,15.0,59,0.00,,,0.00,1.000000,,2013-03-20 08:32:00,
2013-03-20 03:42:00,2.0,-9.0,30.19,NW,306,7.0,15.0,59,0.00,,,0.00,1.000000,,2013-03-20 08:42:00,
2013-03-20 03:52:00,2.0,-9.0,30.19,NW,306,7.0,15.0,59,0.00,,,0.00,1.000000,,2013-03-20 08:52:00,
2013-03-20 04:02:00,2.0,-9.0,30.19,NW,306,7.0,15.0,59,0.00,,,0.00,1.000000,,2013-03-20 09:02:00,
2013-03-20 04:33:00,1.0,-9.0,30.19,NW,306,7.0,16.0,61,0.00,,,0.00,1.000000,,2013-03-20 09:33:00,
2013-03-20 04:43:00,1.0,-9.0,30.19,NW,306,7.0,16.0,61,0.00,,,0.00,1.000000,,2013-03-20 09:43:00,
2013-03-20 04:53:00,1.0,-9.0,30.19,NW,306,7.0,16.0,61,0.00,,,0.00,1.000000,,2013-03-20 09:53:00,
2013-03-20 05:03:00,1.0,-9.0,30.19,NW,306,7.0,16.0,61,0.00,,,0.00,1.000000,,2013-03-20 10:03:00,
2013-03-20 05:33:00,1.0,-9.0,30.19,NW,305,7.0,13.0,61,0.00,,,0.00,1.000000,,2013-03-20 10:33:00,
2013-03-20 05:43:00,1.0,-9.0,30.19,NW,305,7.0,13.0,61,0.00,,,0.00,1.000000,,2013-03-20 10:43:00,
2013-03-20 05:53:00,1.0,-9.0,30.19,NW,305,7.0,13.0,61,0.00,,,0.00,1.000000,,2013-03-20 10:53:00,
2013-03-20 06:03:00,1.0,-9.0,30.19,NW,305,7.0,13.0,61,0.00,,,0.00,1.000000,,2013-03-20 11:03:00,
2013-03-20 06:32:00,-1.0,-10.0,30.20,WNW,303,5.0,13.0,65,0.00,,,0.00,1.000000,,2013-03-20 11:32:00,
2013-03-20 06:42:00,-1.0,-10.0,30.20,WNW,303,5.0,13.0,65,0.00,,,0.00,1.000000,,2013-03-20 11:42:00,
2013-03-20 06:52:00,-1.0,-10.0,30.20,WNW,303,5.0,13.0,65,0.00,,,0.00,1.000000,,2013-03-20 11:52:00,
2013-03-20 07:02:00,-1.0,-10.0,30.20,WNW,303,5.0,13.0,65,0.00,,,0.00,1.000000,,2013-03-20 12:02:00,
2013-03-20 07:33:00,-2.0,-11.0,30.20,NW,311,6.0,12.0,66,0.00,,,-99.99,1.000000,,2013-03-20 12:33:00,
2013-03-20 07:43:00,-2.0,-11.0,30.20,NW,311,6.0,12.0,66,0.00,,,-99.99,1.000000,,2013-03-20 12:43:00,
2013-03-20 07:52:00,-2.0,-11.0,30.20,NW,311,6.0,12.0,66,0.00,,,-99.99,1.000000,,2013-03-20 12:52:00,
2013-03-20 08:03:00,-2.0,-11.0,30.20,NW,311,6.0,12.0,66,0.00,,,-99.99,1.000000,,2013-03-20 13:03:00,
2013-03-20 08:32:00,0.0,-11.0,30.21,NW,312,7.0,13.0,60,0.00,,,0.00,10.000000,,2013-03-20 13:32:00,
2013-03-20 08:43:00,0.0,-11.0,30.21,NW,312,7.0,13.0,60,0.00,,,0.00,10.000000,,2013-03-20 13:43:00,
2013-03-20 08:53:00,0.0,-11.0,30.21,NW,312,7.0,13.0,60,0.00,,,0.00,10.000000,,2013-03-20 13:53:00,
2013-03-20 09:02:00,0.0,-11.0,30.21,NW,312,7.0,13.0,60,0.00,,,0.00,10.000000,,2013-03-20 14:02:00,
2013-03-20 09:34:00,6.0,-9.0,30.21,NW,316,8.0,15.0,49,0.00,,,0.00,93.000000,,2013-03-20 14:34:00,
2013-03-20 09:43:00,6.0,-9.0,30.21,NW,316,8.0,15.0,49,0.00,,,0.00,93.000000,,2013-03-20 14:43:00,
2013-03-20 09:52:00,6.0,-9.0,30.21,NW,316,8.0,15.0,49,0.00,,,0.00,93.000000,,2013-03-20 14:52:00,
2013-03-20 10:02:00,6.0,-9.0,30.21,NW,316,8.0,15.0,49,0.00,,,0.00,93.000000,,2013-03-20 15:02:00,
2013-03-20 10:33:00,10.0,-8.0,30.20,NW,309,10.0,21.0,42,0.00,,,0.00,323.000000,,2013-03-20 15:33:00,
2013-03-20 10:43:00,10.0,-8.0,30.20,NW,309,10.0,21.0,42,0.00,,,0.00,323.000000,,2013-03-20 15:43:00,
2013-03-20 10:53:00,10.0,-8.0,30.20,NW,309,10.0,21.0,42,0.00,,,0.00,323.000000,,2013-03-20 15:53:00,
2013-03-20 11:03:00,10.0,-8.0,30.20,NW,309,10.0,21.0,42,0.00,,,0.00,323.000000,,2013-03-20 16:03:00,
2013-03-20 11:33:00,13.0,-8.0,30.18,NNW,331,13.0,23.0,38,0.00,,,0.00,492.000000,,2013-03-20 16:33:00,
2013-03-20 11:43:00,13.0,-8.0,30.18,NNW,331,13.0,23.0,38,0.00,,,0.00,492.000000,,2013-03-20 16:43:00,
2013-03-20 11:53:00,13.0,-8.0,30.18,NNW,331,13.0,23.0,38,0.00,,,0.00,492.000000,,2013-03-20 16:53:00,
2013-03-20 12:03:00,13.0,-8.0,30.18,NNW,331,13.0,23.0,38,0.00,,,0.00,492.000000,,2013-03-20 17:03:00,
2013-03-20 12:33:00,16.0,-7.0,30.17,NW,315,9.0,26.0,35,0.00,,,0.00,620.000000,,2013-03-20 17:33:00,
2013-03-20 12:42:00,16.0,-7.0,30.17,NW,315,9.0,26.0,35,0.00,,,0.00,620.000000,,2013-03-20 17:42:00,
2013-03-20 12:53:00,16.0,-7.0,30.17,NW,315,9.0,26.0,35,0.00,,,0.00,620.000000,,2013-03-20 17:53:00,
2013-03-20 13:02:00,16.0,-7.0,30.17,NW,315,9.0,26.0,35,0.00,,,0.00,620.000000,,2013-03-20 18:02:00,
2013-03-20 13:34:00,17.0,-5.0,30.16,NW,313,12.0,21.0,37,0.00,,,0.00,706.000000,,2013-03-20 18:34:00,
2013-03-20 13:43:00,17.0,-5.0,30.16,NW,313,12.0,21.0,37,0.00,,,0.00,706.000000,,2013-03-20 18:43:00,
2013-03-20 13:53:00,17.0,-5.0,30.16,NW,313,12.0,21.0,37,0.00,,,0.00,706.000000,,2013-03-20 18:53:00,
2013-03-20 14:02:00,17.0,-5.0,30.16,NW,313,12.0,21.0,37,0.00,,,0.00,706.000000,,2013-03-20 19:02:00,
2013-03-20 14:33:00,18.0,-4.0,30.16,NW,317,12.0,23.0,37,0.00,,,0.00,735.000000,,2013-03-20 19:33:00,
2013-03-20 14:42:00,18.0,-4.0,30.16,NW,317,12.0,23.0,37,0.00,,,0.00,735.000000,,2013-03-20 19:42:00,
2013-03-20 14:53:00,18.0,-4.0,30.16,NW,317,12.0,23.0,37,0.00,,,0.00,735.000000,,2013-03-20 19:53:00,
2013-03-20 15:02:00,18.0,-4.0,30.16,NW,317,12.0,23.0,37,0.00,,,0.00,735.000000,,2013-03-20 20:02:00,
2013-03-20 15:32:00,18.0,-3.0,30.14,NW,322,10.0,21.0,39,0.00,,,0.00,702.000000,,2013-03-20 20:32:00,
2013-03-20 15:43:00,18.0,-3.0,30.14,NW,322,10.0,21.0,39,0.00,,,0.00,702.000000,,2013-03-20 20:43:00,
2013-03-20 15:53:00,18.0,-3.0,30.14,NW,322,10.0,21.0,39,0.00,,,0.00,702.000000,,2013-03-20 20:53:00,
2013-03-20 16:02:00,18.0,-3.0,30.14,NW,322,10.0,21.0,39,0.00,,,0.00,702.000000,,2013-03-20 21:02:00,
2013-03-20 16:33:00,19.0,-1.0,30.14,NW,315,9.0,18.0,40,0.00,,,0.00,621.000000,,2013-03-20 21:33:00,
2013-03-20 16:42:00,19.0,-1.0,30.14,NW,315,9.0,18.0,40,0.00,,,0.00,621.000000,,2013-03-20 21:42:00,
2013-03-20 16:53:00,19.0,-1.0,30.14,NW,315,9.0,18.0,40,0.00,,,0.00,621.000000,,2013-03-20 21:53:00,
2013-03-20 17:03:00,19.0,-1.0,30.14,NW,315,9.0,18.0,40,0.00,,,0.00,621.000000,,2013-03-20 22:03:00,
2013-03-20 17:33:00,17.0,-2.0,30.14,NNW,328,10.0,18.0,42,0.00,,,0.00,492.000000,,2013-03-20 22:33:00,
2013-03-20 17:43:00,17.0,-2.0,30.14,NNW,328,10.0,18.0,42,0.00,,,0.00,492.000000,,2013-03-20 22:43:00,
2013-03-20 17:53:00,17.0,-2.0,30.14,NNW,328,10.0,18.0,42,0.00,,,0.00,492.000000,,2013-03-20 22:53:00,
2013-03-20 18:02:00,17.0,-2.0,30.14,NNW,328,10.0,18.0,42,0.00,,,0.00,492.000000,,2013-03-20 23:02:00,
2013-03-20 18:33:00,15.0,-2.0,30.14,NW,314,9.0,16.0,47,0.00,,,0.00,330.000000,,2013-03-20 23:33:00,
2013-03-20 18:43:00,15.0,-2.0,30.14,NW,314,9.0,16.0,47,0.00,,,0.00,330.000000,,2013-03-20 23:43:00,
2013-03-20 18:53:00,15.0,-2.0,30.14,NW,314,9.0,16.0,47,0.00,,,0.00,330.000000,,2013-03-20 23:53:00,
2013-03-20 19:02:00,15.0,-2.0,30.14,NW,314,9.0,16.0,47,0.00,,,0.00,330.000000,,2013-03-21 00:02:00,
2013-03-20 19:33:00,11.0,-2.0,30.15,NW,315,6.0,14.0,54,0.00,,,0.00,102.000000,,2013-03-21 00:33:00,
2013-03-20 19:42:00,11.0,-2.0,30.15,NW,315,6.0,14.0,54,0.00,,,0.00,102.000000,,2013-03-21 00:42:00,
2013-03-20 19:52:00,11.0,-2.0,30.15,NW,315,6.0,14.0,54,0.00,,,0.00,102.000000,,2013-03-21 00:52:00,
2013-03-20 20:02:00,11.0,-2.0,30.15,NW,315,6.0,14.0,54,0.00,,,0.00,102.000000,,2013-03-21 01:02:00,
2013-03-20 20:33:00,8.0,-3.0,30.14,NW,320,4.0,11.0,60,0.00,,,0.00,7.000000,,2013-03-21 01:33:00,
2013-03-20 20:42:00,8.0,-3.0,30.14,NW,320,4.0,11.0,60,0.00,,,0.00,7.000000,,2013-03-21 01:42:00,
2013-03-20 20:53:00,8.0,-3.0,30.14,NW,320,4.0,11.0,60,0.00,,,0.00,7.000000,,2013-03-21 01:53:00,
2013-03-20 21:02:00,8.0,-3.0,30.14,NW,320,4.0,11.0,60,0.00,,,0.00,7.000000,,2013-03-21 02:02:00,
2013-03-20 21:33:00,6.0,-3.0,30.15,NW,315,4.0,6.0,65,0.00,,,0.00,0.000000,,2013-03-21 02:33:00,
2013-03-20 21:42:00,6.0,-3.0,30.15,NW,315,4.0,6.0,65,0.00,,,0.00,0.000000,,2013-03-21 02:42:00,
2013-03-20 21:52:00,6.0,-3.0,30.15,NW,315,4.0,6.0,65,0.00,,,0.00,0.000000,,2013-03-21 02:52:00,
2013-03-20 22:02:00,6.0,-3.0,30.15,NW,315,4.0,6.0,65,0.00,,,0.00,0.000000,,2013-03-21 03:02:00,
2013-03-20 22:33:00,4.0,-4.0,30.14,NW,308,2.0,7.0,70,0.00,,,0.00,0.000000,,2013-03-21 03:33:00,
2013-03-20 22:43:00,4.0,-4.0,30.14,NW,308,2.0,7.0,70,0.00,,,0.00,0.000000,,2013-03-21 03:43:00,
2013-03-20 22:53:00,4.0,-4.0,30.14,NW,308,2.0,7.0,70,0.00,,,0.00,0.000000,,2013-03-21 03:53:00,
2013-03-20 23:03:00,4.0,-4.0,30.14,NW,308,2.0,7.0,70,0.00,,,0.00,0.000000,,2013-03-21 04:03:00,
2013-03-20 23:33:00,2.0,-5.0,30.14,NW,305,3.0,7.0,73,0.00,,,0.00,1.000000,,2013-03-21 04:33:00,
2013-03-20 23:43:00,2.0,-5.0,30.14,NW,305,3.0,7.0,73,0.00,,,0.00,1.000000,,2013-03-21 04:43:00,
2013-03-20 23:53:00,2.0,-5.0,30.14,NW,305,3.0,7.0,73,0.00,,,0.00,1.000000,,2013-03-21 04:53:00,